Regional Weather Roundup
Issued by NWS Spokane, WA

Home | Current Version | Previous Version | Text Only | Print | Product List | Glossary On
Versions: 1 2 3 4 5 6 7 8 9 10 11 12 13 14 15 16 17 18 19 20 21 22 23 24 25 26 27 28 29 30 31 32 33 34 35 36 37 38 39 40 41 42 43 44 45 46 47 48 49 50
000
NZUS01 KOTX 262210
RWROTX
EASTERN WASHINGTON/NORTHERN IDAHO ROUNDUP
NATIONAL WEATHER SERVICE, SPOKANE WA
300 PM PDT THU MAR 26 2015

Note: "fair" indicated few or no clouds below 12,000 feet with no
significant weather and/or obstructions to visibility.

...NORTHEAST WASHINGTON AND NORTHERN IDAHO PANHANDLE...

CITY           SKY/WX    TMP DP  RH WIND       PRES   REMARKS
SPOKANE INTL   PTSUNNY   60  46  59 SW6       30.27F
SPOKANE DOWNTO CLOUDY    63  46  54 S9        30.27F
COEUR D ALENE  CLOUDY    61  46  59 SE6       30.27F
DEER PARK      PTSUNNY   59  45  59 VRB3      30.27F
SANDPOINT      PTSUNNY   54  46  76 SE8       30.28F
BONNERS FERRY  FAIR      57  45  62 SW9G22    30.24F

...SOUTHEAST WASHINGTON AND SOUTHERN IDAHO PANHANDLE...

CITY           SKY/WX    TMP DP  RH WIND       PRES   REMARKS
WALLA WALLA    SUNNY     71  47  42 NW6       30.22F
PULLMAN/MOSCOW MOSUNNY   62  46  55 SE6       30.30F
LEWISTON       MOSUNNY   68  48  48 NE12      30.25F
LOWELL           N/A     62  48  60 CALM      30.28F

...COLUMBIA BASIN...

CITY           SKY/WX    TMP DP  RH WIND       PRES   REMARKS
EPHRATA        SUNNY     65  49  56 S7        30.22F
MOSES LAKE     SUNNY     66  48  52 VRB5      30.24F
TRI CITIES     SUNNY     71  49  45 VRB5      30.21F
HERMISTON      SUNNY     71  47  42 VRB6      30.20F
PENDLETON      SUNNY     71  46  40 N8        30.20F

...EAST SLOPES CASCADES...

CITY           SKY/WX    TMP DP  RH WIND       PRES   REMARKS
THE DALLES     SUNNY     69  47  45 CALM      30.18
YAKIMA         SUNNY     71  47  42 E7        30.21F
ELLENSBURG     SUNNY     70  45  40 VRB3      30.21F
WENATCHEE      SUNNY     66  47  50 SE7       30.21F
OMAK           PTSUNNY   56  46  69 NE3       30.26F

...SOUTHERN BRITISH COLUMBIA...

CITY           SKY/WX    TMP DP  RH WIND       PRES   REMARKS
PENTICTON      PTSUNNY   57  45  62 S9        30.23F
CRANBROOK      PTSUNNY   59  41  51 S15       30.15F

...WESTERN MONTANA...

CITY           SKY/WX    TMP DP  RH WIND       PRES   REMARKS
MISSOULA       CLOUDY    54  40  59 E6        30.31F

...NEIGHBORING CITIES...

CITY           SKY/WX    TMP DP  RH WIND       PRES   REMARKS
SEATTLE        MOSUNNY   67  48  50 CALM      30.22F
CALGARY        PTSUNNY   64  30  27 W18G31    29.96S



USA.gov is the U.S. government's official web portal to all federal, state and local government web resources and services.